GW1815 Weather Reports


Display with metric or nautical units.
time (UTC)temp
F
wind
direction
speed
MPH
gust
MPH
rain 1hr
in
rain 24hr
in
rain mn
in
humidity
%
barometer
mb
20260502163033 52 312 4.0 13.0 0.00 0.00 0.00 41 1018.9
20260502161532 52 213 2.0 14.0 0.00 0.00 0.00 44 1018.9
20260502151532 50 0 3.0 11.0 0.00 0.00 0.00 47 1019.2
20260502123033 33 311 3.0 7.0 0.00 0.00 0.00 93 1019.5
20260502121532 31 303 2.0 8.0 0.00 0.00 0.00 92 1019.2
20260502114529 27 0 0.0 1.0 0.00 0.00 0.00 91 1019.1
20260502113032 27 0 0.0 0.0 0.00 0.00 0.00 91 1019.0
20260502111530 26 0 0.0 0.0 0.00 0.00 0.00 90 1018.9
20260502110031 26 0 0.0 0.0 0.00 0.00 0.00 90 1018.9
20260502104530 26 0 0.0 0.0 0.00 0.00 0.00 90 1018.8
20260502103029 26 0 0.0 0.0 0.00 0.00 0.00 90 1018.7
20260502101537 26 0 0.0 0.0 0.00 0.00 0.00 90 1018.8
20260502091530 26 0 0.0 1.0 0.00 0.00 0.00 89 1018.8
20260502071530 27 0 0.0 0.0 0.00 0.01 0.00 87 1018.7
20260502070030 27 0 0.0 0.0 0.00 0.01 0.00 86 1018.8
20260502064549 27 0 0.0 0.0 0.00 0.01 0.00 86 1018.8
20260502063034 27 0 0.0 0.0 0.00 0.01 0.00 86 1019.1
20260502061531 28 0 0.0 0.0 0.00 0.01 0.00 85 1019.2
20260502060035 28 0 0.0 0.0 0.00 0.01 0.00 85 1019.3
20260502054531 28 0 0.0 0.0 0.00 0.02 0.00 85 1019.2
20260502053032 28 0 0.0 0.0 0.00 0.02 0.00 85 1019.3
20260502051537 28 0 0.0 0.0 0.00 0.02 0.00 84 1019.3
20260502050032 29 0 0.0 0.0 0.00 0.02 0.00 83 1019.2
20260502044538 29 0 0.0 0.0 0.00 0.02 0.02 83 1019.1
20260502043032 29 0 0.0 0.0 0.00 0.02 0.02 83 1018.9
20260502041534 30 0 0.0 0.0 0.00 0.02 0.02 82 1018.9
20260502040040 30 0 0.0 0.0 0.00 0.02 0.02 82 1018.9
20260502034533 31 0 0.0 0.0 0.00 0.04 0.02 81 1018.8
20260502033032 31 0 0.0 0.0 0.00 0.04 0.02 80 1018.9
20260502031534 32 0 0.0 0.0 0.00 0.04 0.02 79 1019.0
20260502030032 33 0 0.0 0.0 0.00 0.04 0.02 77 1018.8
20260502024531 34 0 0.0 0.0 0.00 0.05 0.02 75 1018.7
20260502023037 35 0 0.0 0.0 0.00 0.05 0.02 73 1018.6
20260502021531 36 0 0.0 0.0 0.00 0.05 0.02 70 1018.7
20260502020033 38 0 0.0 0.0 0.00 0.05 0.02 67 1018.5
20260502014543 39 0 0.0 0.0 0.00 0.06 0.02 64 1018.4
20260502013030 39 0 0.0 4.0 0.00 0.06 0.02 64 1018.1
20260502011532 39 0 2.0 6.0 0.00 0.06 0.02 61 1018.1
20260502010033 40 0 0.0 0.0 0.00 0.06 0.02 60 1018.1
20260502004535 40 24 0.0 6.0 0.00 0.09 0.02 59 1018.2
20260502003029 40 0 0.0 2.0 0.00 0.09 0.02 58 1018.3
20260502001554 41 30 1.0 4.0 0.00 0.09 0.02 58 1018.1
20260502000034 42 80 0.0 7.0 0.00 0.09 0.02 54 1018.0
20260501234532 43 40 4.0 10.0 0.00 0.11 0.02 53 1017.9
20260501233032 43 49 3.0 10.0 0.00 0.11 0.02 54 1017.9
20260501231537 42 101 4.0 12.0 0.00 0.11 0.02 55 1018.0
20260501230032 42 55 6.0 11.0 0.00 0.11 0.02 61 1017.8
20260501224536 42 26 2.0 11.0 0.00 0.12 0.02 61 1017.8
20260501223032 42 48 2.0 10.0 0.00 0.12 0.02 63 1017.9
20260501221533 42 116 5.0 11.0 0.00 0.12 0.02 61 1017.9
20260501220031 43 5 5.0 11.0 0.00 0.12 0.02 61 1017.8
20260501214530 44 25 5.0 12.0 0.00 0.12 0.02 60 1017.7
20260501213033 44 9 6.0 13.0 0.00 0.12 0.02 64 1017.6
20260501211530 44 20 3.0 11.0 0.00 0.12 0.02 65 1017.6
20260501210037 43 0 6.0 12.0 0.00 0.12 0.02 67 1017.5
20260501204532 42 346 4.0 11.0 0.00 0.12 0.02 67 1017.6
20260501203034 42 0 2.0 7.0 0.00 0.12 0.02 68 1017.7
20260501201529 42 36 5.0 13.0 0.00 0.12 0.02 71 1017.7
20260501200032 41 65 2.0 11.0 0.00 0.12 0.02 72 1017.7
20260501194533 41 11 3.0 14.0 0.00 0.13 0.02 72 1017.7
20260501193030 42 91 5.0 11.0 0.00 0.13 0.02 71 1017.6
20260501191529 42 58 5.0 11.0 0.00 0.13 0.02 69 1017.5
20260501190035 43 16 6.0 12.0 0.00 0.13 0.02 72 1017.4
20260501184532 42 46 5.0 14.0 0.00 0.13 0.02 78 1017.1
20260501183030 41 5 7.0 12.0 0.00 0.13 0.02 79 1017.0
20260501181532 41 20 5.0 12.0 0.00 0.13 0.02 79 1017.0
20260501180038 42 360 11.0 18.0 0.00 0.13 0.02 76 1016.8
20260501174534 43 51 10.0 16.0 0.00 0.13 0.02 77 1016.7
20260501173030 41 35 7.0 15.0 0.00 0.13 0.02 78 1016.7
20260501171531 41 48 6.0 12.0 0.00 0.13 0.02 77 1016.6
20260501170030 42 27 9.0 20.0 0.00 0.13 0.02 75 1016.6